Regional Weather Roundup
Issued by NWS

Home | Current Version | Previous Version | Text Only | Print | Product List | Glossary Off
Versions: 1 2 3 4 5 6 7 8 9 10 11 12 13 14 15 16 17 18 19 20 21 22 23 24 25 26 27 28 29 30 31 32 33 34 35 36 37 38 39 40 41 42 43 44 45 46 47 48 49 50

000
ASUS44 KMEG 262000
RWRTN
TENNESSEE HOURLY STATE WEATHER ROUNDUP
NATIONAL WEATHER SERVICE MEMPHIS TN
200 PM CST SUN FEB 26 2017

TNZ002-004-019-021-049-052-054-088>092-262100-
WEST TENNESSEE

CITY           SKY/WX    TMP DP  RH WIND       PRES   REMARKS
MEMPHIS INTL   MOSUNNY   59  19  21 S9        30.11F
NWS MEMPHIS      N/A     60 N/A N/A MISG        N/A
JACKSON        SUNNY     57  19  22 E8        30.12F
UNION CITY     MOSUNNY   54   7  15 CALM      30.12F
PARIS          SUNNY     54  18  24 S8        30.13F
$$

TNZ008-025-027-028-033-062-065-066-262100-
NORTH MIDDLE TENNESSEE

CITY           SKY/WX    TMP DP  RH WIND       PRES   REMARKS
NASHVILLE      PTSUNNY   54  15  21 SE12      30.16F
CLARKSVILLE    SUNNY     53  16  23 S10       30.15F
SMYRNA         SUNNY     55  18  23 S8        30.18F
CROSSVILLE     SUNNY     47  15  27 VRB6      30.17F
$$

TNZ061-075-076-078-094-096-097-262100-
SOUTH MIDDLE TENNESSEE

CITY           SKY/WX    TMP DP  RH WIND       PRES   REMARKS
TULLAHOMA      SUNNY     54  12  19 E8        30.17F
WINCHESTER     SUNNY     54  19  26 VRB3      30.16F
MCMINNVILLE    SUNNY     54  18  24 CALM      30.16F
COLUMBIA       SUNNY     55  19  24 SE9       30.13F
SHELBYVILLE    SUNNY     55  21  26 VRB7      30.17F
$$

TNZ017-018-042-046-047-262100-
NORTHEAST TENNESSEE

CITY           SKY/WX    TMP DP  RH WIND       PRES   REMARKS
TRI CITIES     SUNNY     45  17  32 CALM      30.20F
$$

TNZ012-013-036-069-073-074-262100-
CENTRAL EAST TENNESSEE

CITY           SKY/WX    TMP DP  RH WIND       PRES   REMARKS
KNOXVILLE      SUNNY     49  11  21 VRB3      30.19F
OAK RIDGE      SUNNY     51  12  21 VRB3      30.22F
GATLINBURG     SUNNY     48  16  27 VRB3      30.19F
$$

TNZ083-085-099-262100-
SOUTHEAST TENNESSEE

CITY           SKY/WX    TMP DP  RH WIND       PRES   REMARKS
CHATTANOOGA    MOSUNNY   53  17  24 CALM      30.21F
$$

SKY/WX REPORTED AS FAIR MEANS FEW OR NO CLOUDS BELOW
12 THOUSAND FEET.





USA.gov is the U.S. government's official web portal to all federal, state and local government web resources and services.